Date String (YYYY-MM-DD hh:mm:ss) UTC,Instrument flags,Ambient pressure (hPa),Sample flow (lpm),Bypass flow (lpm),Sample temperature (°C),Ambient temperature (°C),ASC tube jacket temperature (°C),LED temperature (°C),Box temperature (°C),Sample RH (%),Span deviation,Mass concentration (μg/m³),Mass concentration (μg/m³),Mass concentration (μg/m³)
DateTimeUTC,F1_M11,P_M11,Q1_M11,Q2_M11,T1_M11,T2_M11,T3_M11,T4_M11,T5_M11,U1_M11,ZSPAN_M11,X0_M11,X2_M11,X1_M11
2023-01-25 17:00:00,,0827.9,5.01,0.00,21.6,21.8,00.0,30.3,23.3,10.7,0000.0,0004.65,0003.23,0002.96
2023-01-25 17:01:00,,0827.9,5.01,0.00,21.5,20.9,00.0,30.4,23.1,10.7,0000.0,0005.51,0003.33,0003.10
2023-01-25 17:02:00,,0827.9,5.01,0.00,21.5,20.1,00.0,30.4,22.9,10.8,0000.0,0005.74,0003.42,0003.19
2023-01-25 17:03:00,,0827.9,5.00,0.00,21.4,19.6,00.0,30.3,22.8,10.9,0000.0,0006.21,0003.50,0003.28
2023-01-25 17:04:00,,0827.9,4.99,0.00,21.3,19.1,00.0,30.3,22.6,11.0,0000.0,0007.38,0003.58,0003.35
2023-01-25 17:05:00,,0827.9,5.01,0.00,21.2,18.7,00.0,30.3,22.5,11.0,0000.0,0008.53,0003.69,0003.43
2023-01-25 17:06:00,,0827.9,4.99,0.00,21.1,18.5,00.0,30.2,22.4,11.1,0000.0,0008.96,0003.79,0003.52
2023-01-25 17:07:00,,0827.9,5.01,0.00,21.1,18.8,00.0,30.2,22.4,11.1,0000.0,0009.01,0003.85,0003.59
2023-01-25 17:08:00,,0827.9,5.00,0.00,21.2,20.4,00.0,30.1,22.7,11.1,-001.0,0009.12,0003.92,0003.64
2023-01-25 17:09:00,,0827.9,5.00,0.00,21.3,21.7,00.0,30.1,23.1,11.0,-001.4,0009.17,0003.96,0003.67
2023-01-25 17:10:00,,0827.9,4.99,0.00,21.4,21.8,00.0,30.2,23.2,11.0,-000.4,0009.34,0004.00,0003.69
2023-01-25 17:11:00,,0827.9,5.00,0.00,21.4,20.9,00.0,30.2,23.1,11.1,-000.2,0009.42,0004.02,0003.70
2023-01-25 17:12:00,,0827.9,5.00,0.00,21.3,20.1,00.0,30.2,22.8,11.3,0000.4,0009.16,0004.02,0003.70
2023-01-25 17:13:00,,0827.9,4.99,0.00,21.3,19.6,00.0,30.2,22.7,11.3,0000.3,0009.16,0004.02,0003.70
2023-01-25 17:14:00,,0827.9,5.01,0.00,21.2,19.1,00.0,30.2,22.5,11.4,0000.2,0009.23,0004.02,0003.69
2023-01-25 17:15:00,,0827.9,4.97,0.00,21.1,18.7,00.0,30.1,22.4,11.5,-000.1,0009.06,0004.00,0003.66
2023-01-25 17:16:00,,0827.9,5.00,0.00,21.0,18.4,00.0,30.1,22.3,11.4,0000.4,0008.29,0003.92,0003.60
2023-01-25 17:17:00,,0827.9,5.01,0.00,21.0,19.4,00.0,30.0,22.4,11.3,0000.6,0007.75,0003.86,0003.55
2023-01-25 17:18:00,,0827.9,5.01,0.00,21.1,20.9,00.0,30.0,22.8,11.3,0000.3,0007.67,0003.81,0003.49
2023-01-25 17:19:00,,0827.9,4.99,0.00,21.3,21.9,00.0,30.0,23.1,11.3,0000.3,0007.61,0003.76,0003.45
2023-01-25 17:20:00,,0827.9,4.99,0.00,21.3,21.3,00.0,30.1,23.1,11.3,-000.0,0007.78,0003.74,0003.41
2023-01-25 17:21:00,,0827.9,5.01,0.00,21.3,20.4,00.0,30.1,22.8,11.3,-000.7,0007.64,0003.70,0003.38
2023-01-25 17:22:00,,0827.9,5.00,0.00,21.2,19.7,00.0,30.1,22.6,11.4,-000.8,0007.50,0003.67,0003.35
2023-01-25 17:23:00,,0827.8,4.99,0.00,21.2,19.3,00.0,30.1,22.5,11.5,-001.4,0007.38,0003.65,0003.33
2023-01-25 17:24:00,,0827.8,5.00,0.00,21.1,19.0,00.0,30.1,22.4,11.6,-001.4,0007.31,0003.62,0003.31
2023-01-25 17:25:00,,0827.9,4.99,0.00,21.0,18.8,00.0,30.0,22.3,11.7,-001.0,0007.03,0003.60,0003.28
2023-01-25 17:26:00,,0827.9,4.99,0.00,21.0,18.7,00.0,30.0,22.3,11.7,-000.3,0006.21,0003.57,0003.26
2023-01-25 17:27:00,,0827.9,5.00,0.00,21.0,19.5,00.0,30.0,22.4,11.8,0000.0,0006.27,0003.57,0003.24
2023-01-25 17:28:00,,0827.9,5.02,0.00,21.1,21.2,00.0,30.0,22.8,11.6,0000.0,0006.18,0003.54,0003.22
2023-01-25 17:29:00,,0827.9,5.00,0.00,21.3,22.3,00.0,30.0,23.2,11.4,0000.0,0006.19,0003.52,0003.21
2023-01-25 17:30:00,,0827.9,4.98,0.00,21.4,22.1,00.0,30.1,23.2,11.3,0000.0,0006.03,0003.49,0003.19
2023-01-25 17:31:00,,0827.9,4.99,0.00,21.4,21.4,00.0,30.1,23.1,11.4,0000.0,0005.61,0003.46,0003.18
2023-01-25 17:32:00,,0827.9,5.00,0.00,21.4,20.7,00.0,30.1,23.0,11.3,0000.0,0005.70,0003.46,0003.16
2023-01-25 17:33:00,,0827.9,5.00,0.00,21.4,20.3,00.0,30.1,22.9,11.2,0000.0,0006.11,0003.43,0003.14
2023-01-25 17:34:00,,0827.9,5.00,0.00,21.3,20.0,00.0,30.1,22.8,11.3,0000.0,0006.50,0003.43,0003.14
2023-01-25 17:35:00,,0827.8,5.02,0.00,21.3,19.8,00.0,30.1,22.8,11.4,0000.0,0006.62,0003.45,0003.15
2023-01-25 17:36:00,,0827.9,5.01,0.00,21.3,19.7,00.0,30.1,22.8,11.5,0000.0,0006.68,0003.43,0003.14
2023-01-25 17:37:00,,0827.9,5.00,0.00,21.3,19.5,00.0,30.1,22.8,11.6,0000.0,0006.82,0003.45,0003.15
2023-01-25 17:38:00,,0827.9,5.00,0.00,21.2,19.5,00.0,30.1,22.7,11.5,0000.0,0006.59,0003.47,0003.16
2023-01-25 17:39:00,,0827.9,5.00,0.00,21.2,19.4,00.0,30.1,22.7,11.5,0000.0,0006.95,0003.51,0003.19
2023-01-25 17:40:00,,0827.9,5.02,0.00,21.2,19.3,00.0,30.1,22.7,11.4,0000.0,0006.98,0003.53,0003.21
2023-01-25 17:41:00,,0827.8,4.99,0.00,21.2,20.3,00.0,30.1,22.9,11.5,0000.0,0007.71,0003.60,0003.23
2023-01-25 17:42:00,,0827.8,4.99,0.00,21.4,21.8,00.0,30.1,23.2,11.4,0000.0,0007.98,0003.64,0003.24
2023-01-25 17:43:00,,0827.8,4.98,0.00,21.5,22.2,00.0,30.1,23.4,11.2,0000.0,0007.91,0003.64,0003.25
2023-01-25 17:44:00,,0827.8,4.98,0.00,21.5,21.6,00.0,30.2,23.3,11.4,0000.0,0008.18,0003.68,0003.26
2023-01-25 17:45:00,,0827.8,5.01,0.00,21.5,21.1,00.0,30.2,23.2,11.4,0000.0,0007.98,0003.71,0003.27
2023-01-25 17:46:00,,0827.8,5.01,0.00,21.5,20.6,00.0,30.2,23.1,11.3,0000.0,0007.96,0003.71,0003.28
2023-01-25 17:47:00,,0827.8,5.00,0.00,21.5,20.2,00.0,30.2,23.0,11.3,0000.0,0007.87,0003.72,0003.29
2023-01-25 17:48:00,,0827.8,5.00,0.00,21.4,19.9,00.0,30.2,23.0,11.3,0000.0,0008.02,0003.74,0003.30
2023-01-25 17:49:00,,0827.8,4.99,0.00,21.4,19.7,00.0,30.2,22.9,11.2,0000.0,0008.26,0003.73,0003.30
2023-01-25 17:50:00,,0827.8,5.00,0.00,21.4,19.6,00.0,30.2,22.9,11.3,0000.0,0008.20,0003.71,0003.31
2023-01-25 17:51:00,,0827.8,4.99,0.00,21.4,19.5,00.0,30.2,22.9,11.2,0000.0,0008.26,0003.74,0003.30
2023-01-25 17:52:00,,0827.7,5.00,0.00,21.3,19.3,00.0,30.2,22.8,11.1,0000.0,0007.98,0003.71,0003.29
2023-01-25 17:53:00,,0827.7,5.02,0.00,21.3,19.1,00.0,30.2,22.6,11.1,0000.0,0007.57,0003.69,0003.29
2023-01-25 17:54:00,,0827.7,5.00,0.00,21.2,19.5,00.0,30.1,22.7,11.3,0000.0,0007.58,0003.69,0003.30
2023-01-25 17:55:00,,0827.7,5.00,0.00,21.3,21.1,00.0,30.1,23.0,11.3,0000.0,0007.43,0003.70,0003.30
2023-01-25 17:56:00,,0827.7,4.99,0.00,21.5,22.1,00.0,30.2,23.3,11.2,0000.0,0007.33,0003.70,0003.31
2023-01-25 17:57:00,,0827.7,5.00,0.00,21.5,21.6,00.0,30.2,23.3,11.2,0000.0,0007.39,0003.69,0003.30
2023-01-25 17:58:00,,0827.7,5.01,0.00,21.5,21.0,00.0,30.2,23.2,11.1,0000.0,0007.52,0003.68,0003.30
2023-01-25 17:59:00,,0827.7,5.00,0.00,21.5,20.5,00.0,30.2,23.1,11.2,0000.0,0007.35,0003.68,0003.30
